{"data":{"norad_id":69932,"epoch":"2026-09-19T23:10:07.703616Z","epoch_age_seconds":63961,"freshness":"FRESH","line1":"1 69932U 26156BR  26262.96536694  .00000892  00000+0  92349-4 0  9994","line2":"2 69932  97.7384 162.1801 0007876 263.0034  97.0289 14.92499124 11130","mean_motion":14.92499124,"eccentricity":0.0007876,"inclination_deg":97.7384,"raan_deg":162.1801,"arg_perigee_deg":263.0034,"mean_anomaly_deg":97.0289,"bstar":9.2349e-5,"rev_number":1113,"period_min":96.482468689208,"perigee_km":584.65785315203,"apogee_km":595.63429264846,"semimajor_km":6968.2830729002,"source":"CELESTRAK","updated_at":"2026-09-20T09:00:25.207444Z"}}